Regional Weather Roundup
Issued by NWS Charleston, SC

Current Version | Previous Version | Graphics & Text | Print | Product List | Glossary On
Versions: 1 2 3 4 5 6 7 8 9 10 11 12 13 14 15 16 17 18 19 20 21 22 23 24 25 26 27 28 29 30 31 32 33 34 35 36 37 38 39 40 41 42 43 44 45 46 47 48 49 50
000 ASUS42 KCHS 010812 RWRCHS REGIONAL WEATHER ROUNDUP NATIONAL WEATHER SERVICE CHARLESTON SC 400 AM EDT SAT AUG 01 2015 NOTE: "FAIR" INDICATES FEW OR NO CLOUDS BELOW 12,000 FEET WITH NO SIGNIFICANT WEATHER AND/OR OBSTRUCTIONS TO VISIBILITY. NOT ALL STATIONS ARE QUALITY CONTROLLED BY THE NATIONAL WEATHER SERVICE. USE DATA WITH CAUTION...ESPECIALLY DEWPOINT OBSERVATIONS. SCZ027-030-031-034>040-042>050-010900- ...SOUTHEAST SOUTH CAROLINA... CITY SKY/WX TMP DP RH WIND PRES REMARKS N CHARLESTON PTCLDY 77 74 90 NW5 29.91F WATERFRONT PRK N/A 81 77 88 CALM 29.87F MOUNT PLEASANT LGT RAIN 79 77 94 CALM 29.91F JOHNS ISLAND FAIR 79 77 94 CALM 29.90F PINOPOLIS NOT AVBL MONCKS CORNER FAIR 75 73 94 CALM 29.90F FOG SUMMERVILLE PTSUNNY 73 73 100 CALM 29.92S BEAUFORT MCAS PTCLDY 77 75 93 CALM 29.91S BEAUFORT ARPT FAIR 77 77 100 SW3 29.91S HILTON HEAD IS PTCLDY 77 75 94 CALM 29.92S WALTERBORO PTSUNNY 75 73 94 CALM 29.93S ALLENDALE CLOUDY 75 73 94 CALM 29.91F ...SOUTHERN MIDLANDS AND PEE DEE... CITY SKY/WX TMP DP RH WIND PRES REMARKS GEORGETOWN NOT AVBL KINGSTREE NOT AVBL ORANGEBURG MOCLDY 74 72 93 CALM 29.92F BARNWELL PTSUNNY 75 75 100 CALM 29.93S AIKEN FAIR 72 70 94 CALM 29.96R MANNING RAIN 73 72 94 CALM 29.92S COLUMBIA MOCLDY 77 71 82 S3 29.91F SUMTER MOCLDY 76 71 84 W3 29.90S FLORENCE MOCLDY 74 71 91 CALM 29.92S MYRTLE BEACH CLEAR 75 70 83 NW3 29.92F N MYRTLE BEACH CLEAR 75 73 93 CALM 29.90F $$ GAZ063-065-086>088-099>101-113>116-118-119-134>141-150-010900- ...SOUTHEAST GEORGIA... CITY SKY/WX TMP DP RH WIND PRES REMARKS SAVANNAH ARPT CLOUDY 76 73 91 SW5 29.93R HUNTER AAF PTCLDY 75 75 100 W5 29.90S FORT STEWART NOT AVBL STATESBORO CLOUDY 74 32 21 CALM 29.92S FOG SYLVANIA MOSUNNY 74 74 100 CALM 29.92F CLAXTON NOT AVBL ...CSRA...CENTRAL AND FAR SOUTHEAST GEORGIA... CITY SKY/WX TMP DP RH WIND PRES REMARKS THOMSON CLEAR 74 74 99 CALM 29.96R AUGUSTA-BUSH CLEAR 74 73 97 CALM 29.91R AUGUSTA-DANIEL CLEAR 78 72 81 CALM 29.92S SWAINSBORO FAIR N/A N/A N/A CALM 29.93S VIDALIA PTCLDY 73 72 94 CALM 29.92S EASTMAN FOG 74 74 100 CALM 29.94S VSB 3/4 HAZLEHURST FAIR 76 76 100 CALM 29.92R ALMA MOCLDY 74 73 97 CALM 29.92R WAYCROSS CLOUDY 77 77 100 CALM 29.89R JESUP FOG 77 75 94 CALM 29.92S VSB 1/4 BAXLEY CLOUDY 73 73 100 CALM 29.91S FOG BRUNSWICK MOCLDY 73 73 100 CALM 29.93R SAINT SIMONS MOCLDY 77 75 93 SW6 29.92S $$ SCZ027-028-034-036>038-045-046-048>050-GAZ119-141-010900- ...LAKE AND SUPPLEMENTAL COASTAL OBSERVATIONS... STATION/POSITION TIME TEMP WIND PRES WAVE SWELL AIR SEA DIR/SP/G HT/PER HT/PER/DIR (UTC) (F) (DEG/KT/KT) (MB) (FT/S) (FT/S/D) UPR LAKE MARION NOT AVBL WINYAH BAY 0645 78 240/ 2 1012.0 LAKE MURRAY 0700 81 300/ 3/ 5 1012.9S ACE BASIN NERRS NOT AVBL FORT PULASKI 0700 78 86 200/ 5/ 8 1013.7R SAPELO ISLAND 0700 78 280/ 3 1013.0F $$ ANZ835-935-AMZ111-154-330-350-352-354-370-450-454-472-010900- ...C-MAN AND BUOY OBSERVATIONS... STATION/POSITION TIME TEMP WIND PRES WAVE SWELL AIR SEA DIR/SP/G HT/PER HT/PER/DIR (UTC) (F) (DEG/KT/KT) (MB) (FT/S) (FT/S/D) BUOY 41004 0750 83 84 210/ 12/ 14 1012.0F 4/ 7 3/ 7 BUOY 41008 0750 81 83 220/ 10/ 10 1013.3S 2/ 5 2/150/ 5 FOLLY BEACH CMAN 0700 82 210/ 7/ 9 1013.0S CAPERS NEARSHORE 0708 83 220/ 10/ 14 1013.2F FRIPP NEARSHORE 0700 83 230/ 8/ 8 1012.8R STATION/POSITION TIME TEMP WIND PRES WAVE SWELL AIR SEA DIR/SP/G HT/PER HT/PER/DIR (UTC) (F) (DEG/KT/KT) (MB) (FT/S) (FT/S/D) 5E ST. MARYS GA 0721 84 N/A 3/ 7 FRYING PAN BUOY 0750 83 84 230/ 12/ 14 1012.6F 5/ 7 3/160/ 7 BUOY 41025 0750 82 85 150/ 6/ 10 1012.8S 4/ 8 5/170/ 8 CAPE LOOKOUT NC 0700 79 240/ 3/ 4 1012.2F BUOY 41002 0750 82 81 220/ 17/ 21 1015.8F 6/ 8 BUOY 41010 0720 82 84 180/ 14/ 17 1016.3F ST AUGUSTINE FL 0800 76 81 200/ 8/ 10 1014.6R $$

USA.gov is the U.S. government's official web portal to all federal, state and local government web resources and services.